User: anonymous   Login
Location: Caltech
(34.1382°N, 118.1253°W)
Time: 06:09:50
(UTC-08:00)
Language:

Cosmos 44 Rocket - Orbit

View from above orbital plane
View from above orbital plane
View from above satellite
View from above satellite

Ground track
Ground track

The orbit data is extracted from the following two-line orbital elements,

1 00877U 64053B   17021.45816095 -.00000069  00000-0  10936-4 0  9998
2 00877  65.0789   1.0515 0065261 183.2091 176.8599 14.59277649780100
Epoch (UTC): 21 January 2017 10:59:45
Eccentricity: 0.0065261
inclination: 65.0789°
perigee height: 649 km
apogee height: 741 km
right ascension of ascending node: 1.0515°
argument of perigee: 183.2091°
revolutions per day: 14.59277649
mean anomaly at epoch: 176.8599°
orbit number at epoch: 78010

The dashed part of the orbit path shows where the satellite is in the earth's shadow,  

DLR